{"data":{"norad_id":58391,"intl_designator":"2023-178T","name":"STARLINK-30916","alt_names":[],"object_type":"PAYLOAD","status":"ACTIVE","operator":null,"country":"US","launch_date":"2023-11-20","launch_site_code":"AFWTR","launch_vehicle":null,"mission":null,"orbit_class":"UNKNOWN","rcs_meters":null,"size_class":null,"mass_kg":null,"dimensions":null,"purposes":["comms"],"wikipedia_slug":null,"has_3d_model":false,"image_url":null,"decayed_at":null,"tle_current":{"epoch":"2026-05-25T00:08:47.719104Z","epoch_age_seconds":67904,"freshness":"FRESH","line1":"1 58391U 23178T   26145.00610786  .00000588  00000+0  28556-4 0  9993","line2":"2 58391  53.1609   5.9345 0001164  97.6349 262.4786 15.34387753141588","mean_motion":15.34387753,"eccentricity":0.0001164,"inclination_deg":53.1609,"raan_deg":5.9345,"arg_perigee_deg":97.6349,"mean_anomaly_deg":262.4786,"bstar":2.8556e-5,"rev_number":14158,"period_min":93.848507144595,"perigee_km":461.94336307313,"apogee_km":463.53591915518,"semimajor_km":6840.8766411142,"source":"CELESTRAK","updated_at":"2026-05-25T13:38:18.615474Z"}}}